FENGYUN 1C DEB

Satellite information

Favourite Embed

Satellite Type and Status

DEBRISIN ORBIT

Key statistics

Satellite FENGYUN 1C DEB at a glance.

Uptime

9661

Days in orbit

Revolutions

≈ 13.5

Per day

Orbit

SSO

Sun Synchronous Orbit

Inclination

100.0

Latest

Satellite identification and parameters

Extended collection of information and parameters for FENGYUN 1C DEB.

Object identification

Identified? True

Debris? True

Object name: FENGYUN 1C DEB

International designator: 1999-025DRA

Object number (NORAD): 35242

Object ID (CCSDS): 35242

Country: PEOPLES REPUBLIC OF CHINA (PRC)

Current information (Y/N): Y

RCS size: SMALL

Orbital parameters

Period: 106.502 minutes

Inclination: 99.9734 deg

SMA: 7442.736 km

Apoapsis: 1286.305 km

Periapsis: 842.897 km

RAAN: 346.1524 deg

Eccentricy: 0.02978797

Argument of periapsis: 319.4791 deg

Mean anomaly: 221.2542 deg

Mean motion: 13.52084401 rev/day

Mean motion (dot): 0.00002463 rev/day2

B* drag term: 0.0028892276 1/REarth

Two-line elements (TLE)

Creation date: Oct. 21, 2025, 3:26 a.m.

Reference frame: TEME

Reference center: EARTH

Epoch: Oct. 20, 2025, 10:15 p.m. UTC

TLE line 0: 0 FENGYUN 1C DEB

TLE line 1: 1 35242U 99025DRA 25293.92763624 .00002463 00000-0 28892-2 0 9997

TLE line 2: 2 35242 99.9734 346.1524 0297880 319.4791 221.2542 13.52084401574138

Live tracking on map

Real-time ground track for satellite FENGYUN 1C DEB.

In-orbit conjunctions

A list of the most updated potential collisions computed for object FENGYUN 1C DEB.

Target Orbit TCA Probability of collision Miss distance Type
CZ-6A DEB SSO 2024-11-13 22:34:25 0.0008261867 140.0 (m) DEBRIS
COSMOS 252 DEB LEO 2024-10-23 04:24:07 0.0001324165 179.0 (m) DEBRIS
DELTA 1 R/B(1) MEO 2024-07-11 12:23:33 0.0004407212 187.0 (m) ROCKET BODY

Associated space launch

Chinese polar orbiting meteorological satellite

FENGYUN 1C DEB was lifted into orbit during the mission ‘Long March 4B | Feng Yun 1C’, on board a Long March 4B space rocket.

The launch took place on May 10, 1999, 1:33 a.m. from Launch Complex 7.

For more information about the launch, click the button.

Launch to space Long March 4B | Feng Yun 1C
Long March 4B | Feng Yun 1C

Agency: N/A

Status: Launch Successful

Launch date: May 10, 1999, 1:33 a.m. UTC

Rocket: Long March 4B

Launch pad: Launch Complex 7

Location: Taiyuan Satellite Launch Center, People's Republic of China

...

Latest news about this satellite

There are no fresh news available about this satellite. Check back as we update our databases every day.


Newsletter sign-up

Weekly statistics, charts and insights to help you stay on top of the space industry.